Orangeburg, SC

12:45 PM EDT on August 23, 2017 (GMT -0400)
Orangeburg Municipal

Weather History for KOGB - January, 2013

Change the Weather History Date:

Tuesday, January 22, 2013

  Actual Average Record
Temperature  
Mean Temperature 45 °F 46 °F  
Max Temperature 54 °F 57 °F 79 °F (1959)
Min Temperature 36 °F 36 °F 14 °F (1985)
Degree Days  
Heating Degree Days 20 19  
Month to date heating degree days 223 430  
Since 1 July heating degree days 1037 1334  
Cooling Degree Days 0 0  
Month to date cooling degree days 19 0  
Year to date cooling degree days 19 0  
Moisture  
Dew Point 20 °F    
Average Humidity 39    
Maximum Humidity 59    
Minimum Humidity 24    
Precipitation  
Precipitation 0.00 in 0.14 in 1.20 in (2017)
Month to date precipitation 0.38 2.66  
Year to date precipitation 0.38 2.66  
Sea Level Pressure  
Sea Level Pressure 30.19 in    
Wind  
Wind Speed 7 mph (WNW)    
Max Wind Speed 16 mph    
Max Gust Speed 21 mph    
Visibility 10 miles    
Events      
T = Trace of Precipitation, MM = Missing Value Source: NWS Daily Summary

Daily Weather History Graph

Daily Weather History Graph

Search for Another Location

Airport or City:

Trip Planner

Search our weather history database for the weather conditions in past years. The results will help you decide how hot, cold, wet, or windy it might be!

Date:

Astronomy

Jan. 22, 2013 Rise Set
Actual Time 7:25 AM EST 5:45 PM EST
Civil Twilight 6:58 AM EST 6:12 PM EST
Nautical Twilight 6:28 AM EST 6:42 PM EST
Astronomical Twilight 5:58 AM EST 7:11 PM EST
Moon 2:09 PM EST (1/22) 3:43 AM EST (1/22)
Length of Visible Light 11h 13m
Length of Day
10h 20m
Waxing Gibbous, 82% of the Moon is Illuminated
Jan 22
Waxing Gibbous
Jan 26
Full
Feb 3
Last Quarter
Feb 10
New
Feb 17
First Quarter

Hourly Weather History & Observations

Time (EST) Temp. Windchill Dew Point Humidity Pressure Visibility Wind Dir Wind Speed Gust Speed Precip Events Conditions
12:53 AM 48.0 °F - 21.9 °F 36% 30.06 in 10.0 mi WNW 8.1 mph - N/A   Clear
1:53 AM 46.0 °F 41.4 °F 21.9 °F 39% 30.07 in 10.0 mi West 9.2 mph - N/A   Clear
2:53 AM 45.0 °F 40.6 °F 21.0 °F 39% 30.09 in 10.0 mi WNW 8.1 mph - N/A   Clear
3:53 AM 43.0 °F 38.2 °F 19.9 °F 40% 30.09 in 10.0 mi West 8.1 mph - N/A   Clear
4:53 AM 42.1 °F 37.7 °F 19.9 °F 41% 30.09 in 10.0 mi West 6.9 mph - N/A   Clear
5:53 AM 39.9 °F 36.7 °F 19.9 °F 45% 30.12 in 10.0 mi West 4.6 mph - N/A   Clear
6:53 AM 39.0 °F 34.8 °F 19.9 °F 46% 30.15 in 10.0 mi West 5.8 mph - N/A   Clear
7:53 AM 37.9 °F 32.1 °F 19.0 °F 47% 30.19 in 10.0 mi WNW 8.1 mph - N/A   Clear
8:53 AM 39.9 °F 32.9 °F 19.0 °F 43% 30.21 in 10.0 mi NW 11.5 mph - N/A   Clear
9:53 AM 43.0 °F 37.2 °F 18.0 °F 37% 30.23 in 10.0 mi WNW 10.4 mph - N/A   Clear
10:53 AM 45.0 °F 42.6 °F 18.0 °F 34% 30.24 in 10.0 mi NW 4.6 mph - N/A   Clear
11:53 AM 46.9 °F - 18.0 °F 32% 30.22 in 10.0 mi Calm Calm - N/A   Clear
12:53 PM 50.0 °F - 18.0 °F 28% 30.19 in 10.0 mi WNW 9.2 mph - N/A   Clear
1:53 PM 51.1 °F - 19.0 °F 28% 30.18 in 10.0 mi Variable 6.9 mph - N/A   Clear
2:53 PM 53.1 °F - 19.0 °F 26% 30.18 in 10.0 mi Variable 4.6 mph 18.4 mph N/A   Clear
3:53 PM 53.1 °F - 18.0 °F 25% 30.19 in 10.0 mi West 11.5 mph 18.4 mph N/A   Clear
4:53 PM 52.0 °F - 17.1 °F 25% 30.19 in 10.0 mi WNW 8.1 mph - N/A   Clear
5:53 PM 48.0 °F - 19.0 °F 32% 30.22 in 10.0 mi WNW 4.6 mph - N/A   Clear
6:53 PM 43.0 °F 40.3 °F 19.9 °F 40% 30.23 in 10.0 mi West 4.6 mph - N/A   Clear
7:53 PM 42.1 °F 40.2 °F 19.9 °F 41% 30.24 in 10.0 mi WSW 3.5 mph - N/A   Clear
8:53 PM 37.9 °F 34.4 °F 24.1 °F 57% 30.25 in 10.0 mi WSW 4.6 mph - N/A   Clear
9:53 PM 37.0 °F 33.3 °F 24.1 °F 59% 30.27 in 10.0 mi West 4.6 mph - N/A   Clear
10:53 PM 41.0 °F 35.8 °F 19.9 °F 43% 30.28 in 10.0 mi West 8.1 mph - N/A   Clear
11:53 PM 39.9 °F 37.8 °F 19.0 °F 43% 30.28 in 10.0 mi WNW 3.5 mph - N/A   Clear